ATLAS 5 CENTAUR DEB, 46638

Orbit data source: Space-Track

ATLAS 5 CENTAUR DEB, 46638 is space debris in HEO originally from a launch on Wed, 17 Sep 2014 UTC launched from the Air Force Eastern Test Range (AFETR). Debris objects in space refer to the collection of defunct objects orbiting the Earth. Examples of debris include non-operational satellites, rocket bodies, and fragments generated from explosions, collisions, or faulty payload assembly.

Loading next visibility...
Identifier
46638, 2014-055CN
Orbit
HEO
Country
Flag of USUS
Related business
Flag of USUnited Launch Alliance/Lockheed Martin (US)
Manufacturer
Unknown
Mission
Spacecraft
Bus & Motor
Unknown
Mass
Unknown
Launch date (UTC)
2014-09-17 (12 years ago)
Launch vehicle
Unknown
Launch site
Air Force Eastern Test Range (AFETR)
Object type
Payload
Rocket body
Debris
Shape & HBR
Unknown shape, 1.1 m
Radar Cross Section
Small (<0.1 m²)

Expand to show TLE details & history
Last TLE update: 2 weeks ago

TLE from 2 weeks ago
0 ATLAS 5 CENTAUR DEB
1 46638U 14055CN  26147.88017863  .00000096  00000-0  00000-0 0  9998
2 46638  21.0891  97.4514 5180648 254.2378  44.9527  1.92375535 39624
Epoch: 2026-05-27T21:07Z
TLE epoch observation values (Epoch: 2026-05-27T21:07:27.433Z)
Latitude
0.00002°
Longitude
-104.95569°
Altitude
16,862.496 km
Speed
4.439 km/s
True Right ascension
06h 29m 21s
True Declination
0° 00' 00"
Sunlit
Object was in daylight at epoch
Visualization orbit readout
Latitude
Unknown
Longitude
Unknown
Altitude
Unknown
Speed
Unknown
Apparent Right ascension
Unknown
Apparent Declination
Unknown
Sunlit
N/A
Visualization observer readout
Local Sidereal Time
19:45:43
Azimuth
Unknown
Elevation
Unknown
Doppler factor
Unknown
Orbital elements
Apogee altitude
35,081.505 km
Perigee altitude
6,783.924 km
Semi-major axis
27,310.851 km
Eccentricity
0.51806
Inclination
21.0891°
RAAN
97.4514°
Arg. of periapsis
254.2378°
True anomaly
105.82587°
Mean anomaly
44.9527°
Eccentric anomaly
73.39826°
Mean motion
0.48088 °/min
Orbital period
748.62 mins
BSTAR
0
Loading maneuver chart data...
Computing Atmospheric mass density...

Documentation

Showing up to 5 results
|